CZ-6A DEB, 54480

Orbit data source: Space-Track

CZ-6A DEB, 54480 is space debris in SSO originally from a launch on Fri, 11 Nov 2022 UTC launched from the Taiyaun Space Center, China (TSC). Debris objects in space refer to the collection of defunct objects orbiting the Earth. Examples of debris include non-operational satellites, rocket bodies, and fragments generated from explosions, collisions, or faulty payload assembly.

Loading next visibility...
Identifier
54480, 2022-151HG
Orbit
SSO
Country
Flag of CNCN / PRC
Related business
Manufacturer
SAST
Mission
Spacecraft
Bus & Motor
Unknown
Mass
Unknown
Launch date (UTC)
2022-11-11 (4 years ago)
Launch vehicle
Unknown
Launch site
Taiyaun Space Center, China (TSC)
Object type
Payload
Rocket body
Debris
Shape & HBR
Unknown shape, 0.3 m
Radar Cross Section
Medium (>0.1 m² and <1 m²)

Expand to show TLE details & history
Last TLE update: 2 days ago

TLE from 2 days ago
0 CZ-6A DEB
1 54480U 22151HG  26171.33485324  .00000226  00000-0  82693-4 0  9993
2 54480  98.6106 206.9126 0129176   4.6585 355.5771 14.37941721188765
Epoch: 2026-06-20T08:02Z
TLE epoch observation values (Epoch: 2026-06-20T08:02:11.319Z)
Latitude
-0.00006°
Longitude
177.81449°
Altitude
676.237 km
Speed
7.567 km/s
True Right ascension
13h 47m 39s
True Declination
0° 00' 00"
Sunlit
Object was in partial shadow at epoch
Visualization orbit readout
Latitude
Unknown
Longitude
Unknown
Altitude
Unknown
Speed
Unknown
Apparent Right ascension
Unknown
Apparent Declination
Unknown
Sunlit
N/A
Visualization observer readout
Local Sidereal Time
21:32:41
Azimuth
Unknown
Elevation
Unknown
Doppler factor
Unknown
Orbital elements
Apogee altitude
854.675 km
Perigee altitude
670.197 km
Semi-major axis
7,140.573 km
Eccentricity
0.01292
Inclination
98.6106°
RAAN
206.9126°
Arg. of periapsis
4.6585°
True anomaly
355.46108°
Mean anomaly
355.5771°
Eccentric anomaly
355.51928°
Mean motion
3.59703 °/min
Orbital period
100.08 mins
BSTAR
0.000082693
Loading maneuver chart data...
Computing Atmospheric mass density...
Loading historical data...
Loading historical data...
Loading historical data...
Loading historical data...
Loading historical data...
Loading historical data...
Loading historical data...

Documentation

Showing up to 5 results
|